Regional Weather Roundup
Issued by NWS Albany, NY

Current Version | Previous Version | Text Only | Print | Product List | Glossary On
Versions: 1 2 3 4 5 6 7 8 9 10 11 12 13 14 15 16 17 18 19 20 21 22 23 24 25 26 27 28 29 30 31 32 33 34 35 36 37 38 39 40 41 42 43 44 45 46 47 48 49 50
851
ASUS41 KALY 220310
RWRALY

NEW YORK STATE HOURLY WEATHER ROUNDUP
NATIONAL WEATHER SERVICE ALBANY NY
1100 PM EDT MON OCT 21 2019

NOTE: "FAIR" INDICATES FEW OR NO CLOUDS BELOW 12,000 FEET WITH NO
SIGNIFICANT WEATHER AND/OR NO OBSTRUCTIONS TO VISIBILITY.

NYZ032-033-038>043-046>054-057>066-NYZ062>081-082-084-220400-
EAST


CITY           SKY/WX    TMP DP  RH WIND       PRES   REMARKS
ALBANY         FAIR      44  41  89 E3        30.13F
GLENS FALLS    FAIR      38  37  97 CALM      30.13S
POUGHKEEPSIE   FAIR      45  42  89 CALM      30.14R
NEWBURGH       CLEAR     46  46 100 CALM      30.13R
MONTGOMERY     FAIR      43  43 100 CALM      30.12S
WHITE PLAINS   FAIR      50  47  89 CALM      30.13R
ISLIP          MOCLDY    51  47  86 CALM      30.13R
NEW YORK CITY  MOCLDY    59  50  72 E7        30.13R
CENTRAL PARK   FAIR      55  51  86 NE3       30.15R
$$

NYZ005>009-017-018-044>046-055-056-220400-
CENTRAL


CITY           SKY/WX    TMP DP  RH WIND       PRES   REMARKS
FULTON         FAIR      58  44  60 SE8       29.98S
SYRACUSE       MOCLDY    55  48  77 E14       29.99F
ROME           FAIR      54  48  80 E13G22    30.08R
ELMIRA         FAIR      56  49  77 N5        30.01R
BINGHAMTON     FAIR      51  44  77 SE9       30.05S
MONTICELLO     FAIR      47  45  93 E3        30.13S
$$

NYZ026>034-041>043-087-220400-
NORTH


CITY           SKY/WX    TMP DP  RH WIND       PRES   REMARKS
WATERTOWN      FAIR      48  43  82 E3        29.98F
FORT DRUM      NOT AVBL
OGDENSBURG     FAIR      50  43  76 E7        30.02S
MASSENA        FAIR      50  41  71 E9        30.09F
SARANAC LAKE   FAIR      40  37  89 CALM      30.08S
PLATTSBURGH    FAIR      40  38  93 CALM      30.12S
$$

NYZ001>004-010>016-019>021-085-220400-
WEST


CITY           SKY/WX    TMP DP  RH WIND       PRES   REMARKS
BUFFALO        NOT AVBL
JAMESTOWN      MOCLDY    59  44  57 S14G20    29.88S
ROCHESTER      NOT AVBL
$$

             KEY
       WCI = WIND CHILL INDEX
       VSB = VISIBILITY
       HX  = HEAT INDEX
$$




USA.gov is the U.S. government's official web portal to all federal, state and local government web resources and services.